Location: Newark
(21.1200°N, 73.4000°E)
Time: 05:01:53
(UTC+00:00)

Explorer 11/Cluster Stage 4 - Pass Details

Date: 24 January 2020
Orbit: 467 x 1259 km, 28.8° (Epoch: 26 February)

Event Time Altitude Azimuth Distance (km) Brightness Sun altitude
Rises 15:54:44 0° 282° (WNW) 3,408 10.6 -42.4°
Reaches altitude 10° 15:57:48 10° 272° (W) 2,318 9.6 -43.1°
Enters shadow 15:58:28 13° 268° (W) 2,092 9.3 -43.2°
Maximum altitude 16:02:26 29° 213° (SSW) 1,207 - -44.2°
Drops below altitude 10° 16:06:18 10° 151° (SSE) 1,907 - -45.0°
Sets 16:08:36 0° 140° (SE) 2,706 - -45.6°
